Location: Peterborough
(44.3091°N, 78.3197°W)
Time: 00:56:24
(UTC-04:00)

Vanguard 2 Rocket - Pass Details

Date: 28 March 2023
Orbit: 554 x 3314 km, 32.9° (Epoch: 02 June)

Event Time Altitude Azimuth Distance (km) Brightness Sun altitude
Rises 19:38:31 0° 225° (SW) 3,162 10.3 -1.4°
Reaches altitude 10° 19:40:53 10° 212° (SSW) 2,461 9.5 -1.8°
Maximum altitude 19:45:44 27° 155° (SSE) 2,000 8.4 -2.7°
Drops below altitude 10° 19:53:02 10° 103° (ESE) 3,825 9.4 -4.0°
Enters shadow 19:55:24 - 97° (E) 4,582 9.8 -4.4°
Sets 19:57:46 0° 94° (E) 5,343 - -4.8°
